Regional Weather Roundup
Issued by NWS Kansas City/Pleasant Hill, MO

Home | Current Version | Previous Version | Graphics & Text | Print | Product List | Glossary Off
Versions: 1 2 3 4 5 6 7 8 9 10 11 12 13 14 15 16 17 18 19 20 21 22 23 24 25 26 27 28 29 30 31 32 33 34 35 36 37 38 39 40 41 42 43 44 45 46 47 48 49 50

000
ASUS43 KEAX 042010
RWREAX

WEATHER ROUNDUP FOR EASTERN KANSAS AND NORTHWEST MISSOURI
NATIONAL WEATHER SERVICE KANSAS CITY/PLEASANT HILL MO
300 PM CDT FRI SEP 04 2015

KSZ040-057-103>105-MOZ028-029-037-043-042100-
...KANSAS CITY METROPOLITAN AREA...

CITY           SKY/WX    TMP DP  RH WIND       PRES   REMARKS
K.C. INTL      MOSUNNY   92  66  42 S14       29.96F HX  94
K.C. DOWNTOWN  SUNNY     93  68  43 SW14      29.94F HX  97
LEES SUMMIT    SUNNY     90  65  43 S13       29.97F HX  92
OLATHE - IXD   SUNNY     89  68  49 S12G22    29.97F HX  93
OLATHE - OJC   SUNNY     88  69  53 S14       29.96F HX  92
LAWRENCE       SUNNY     92  66  42 S18G25    29.94F HX  94

$$

MOZ001>008-011>017-020>025-030>033-038>040-044>046-053-054-042100-
...NORTHERN AND CENTRAL MISSOURI...

CITY           SKY/WX    TMP DP  RH WIND       PRES   REMARKS
ST. JOSEPH     SUNNY     89  69  51 S13       29.93F HX  93
MOSBY          CLEAR     90  64  43 S9        29.96S HX  91
WARRENSBURG    SUNNY     91  63  38 SE9       29.97F HX  92
WHITEMAN AFB   SUNNY     92  67  43 SW10      29.97F HX  96
CLINTON        SUNNY     93  68  43 S8        29.99S HX  97
SEDALIA        SUNNY     93  67  42 S8        30.00F HX  96
WARSAW         NOT AVBL
CHILLICOTHE      N/A     92  70  48 S9        29.96F HX  97
KIRKSVILLE     MOSUNNY   92  65  40 SW5       29.99F HX  94

$$

MOZ041-047>049-056>058-063>065-088>090-097-042100-
...EASTERN AND SOUTHERN MISSOURI...

CITY           SKY/WX    TMP DP  RH WIND       PRES   REMARKS
ST. LOUIS INTL MOSUNNY   95  66  38 SW9       30.00F HX  98
SPIRIT OF STL  MOSUNNY   92  70  48 SW6       29.99S HX  97
COLUMBIA       MOSUNNY   91  67  44 SW8       30.00F HX  94
JEFFERSON CITY MOSUNNY   92  64  39 S7        29.98F HX  93
ROLLA          MOSUNNY   91  66  43 VRB7      30.01F HX  93
OSAGE BEACH    MOSUNNY   93  66  40 S5        30.01F HX  96
SPRINGFIELD    MOSUNNY   90  66  45 S8        30.02F HX  92
BRANSON        PTSUNNY   90  66  45 SE9       30.04F HX  92
WEST PLAINS    MOSUNNY   88  66  48 VRB5      30.05F HX  90

$$

IAZ060-094-KSZ022-034>040-054-083-096-NEZ052-066-093-042100-
...KANSAS...SOUTHEAST NEBRASKA AND IOWA...

CITY           SKY/WX    TMP DP  RH WIND       PRES   REMARKS
TOPEKA         SUNNY     91  67  44 S20G25    29.93F HX  94
MANHATTAN      SUNNY     95  64  35 S20G25    29.89F HX  97
EMPORIA        SUNNY     90  67  46 S18G25    29.94F HX  93
CHANUTE        MOSUNNY   89  71  55 S13       29.97F HX  95
WICHITA        MOSUNNY   93  65  39 S18G26    29.91F HX  95
OMAHA          PTSUNNY   88  71  57 SE18      29.88F HX  94
LINCOLN        MOSUNNY   92  68  45 S22G30    29.85F HX  96
FALLS CITY     MOSUNNY   93  68  43 S14G23    29.91F HX  97
LAMONI         MOSUNNY   90  71  53 S10       29.96F HX  96
DES MOINES     PTSUNNY   89  69  51 S14       29.93F HX  93

$$



USA.gov is the U.S. government's official web portal to all federal, state and local government web resources and services.